When you browse on this site, cookies collect data to enhance your experience and personalize the content and advertising you see.
Visit our Privacy Policy to learn more. By continuing to use the site, you agree to this use of cookies and data.
  • In Czech Republic
  • List of Countries
  • For 7 days
  • Water Temperature
  • Weather Map
  • Weather Widgets
  • user-avatar
    Login

    Hourly Weather Qui Nhon

    Today, 19 February, Wednesday

    Time Temperature Precipitation Wind Pressure Humidity
    00:00 +22°C° 0.4 mm 5 mps 763 mmHg 92%
    01:00 +21°C° 0 mm 5 mps 763 mmHg 91%
    02:00 +21°C° 0.2 mm 5 mps 762 mmHg 91%
    03:00 +21°C° 0.2 mm 5 mps 762 mmHg 91%
    04:00 +21°C° 0.2 mm 4 mps 762 mmHg 92%
    05:00 +21°C° 0.1 mm 4 mps 762 mmHg 91%
    06:00 +21°C° 0.1 mm 4 mps 762 mmHg 91%
    07:00 +22°C° 0 mm 4 mps 763 mmHg 92%
    08:00 +23°C° 0.2 mm 4 mps 763 mmHg 88%
    09:00 +25°C° 0.2 mm 5 mps 763 mmHg 84%
    10:00 +26°C° 0.2 mm 6 mps 763 mmHg 80%
    11:00 +26°C° 0.1 mm 6 mps 762 mmHg 77%
    12:00 +27°C° 0.1 mm 6 mps 762 mmHg 73%
    13:00 +28°C° 0 mm 6 mps 761 mmHg 68%
    14:00 +27°C° 0.1 mm 7 mps 761 mmHg 71%
    15:00 +27°C° 0.1 mm 7 mps 761 mmHg 73%
    16:00 +26°C° 0.1 mm 7 mps 760 mmHg 76%
    17:00 +24°C° 0.2 mm 6 mps 761 mmHg 81%
    18:00 +23°C° 0.2 mm 6 mps 761 mmHg 87%
    19:00 +22°C° 0.2 mm 5 mps 761 mmHg 92%
    20:00 +22°C° 0.2 mm 5 mps 762 mmHg 92%
    21:00 +22°C° 0.2 mm 5 mps 762 mmHg 92%
    22:00 +22°C° 0.2 mm 5 mps 762 mmHg 92%
    23:00 +22°C° 0.3 mm 5 mps 762 mmHg 92%

    Tomorrow, 20 February, Thursday

    Time Temperature Precipitation Wind Pressure Humidity
    00:00 +22°C° 0.3 mm 5 mps 762 mmHg 92%
    01:00 +22°C° 0.3 mm 5 mps 761 mmHg 92%
    02:00 +22°C° 0.2 mm 4 mps 761 mmHg 92%
    03:00 +22°C° 0.2 mm 4 mps 761 mmHg 91%
    04:00 +21°C° 0.2 mm 4 mps 761 mmHg 91%
    05:00 +22°C° 0.1 mm 4 mps 761 mmHg 91%
    06:00 +22°C° 0.1 mm 4 mps 762 mmHg 90%
    07:00 +22°C° 0.1 mm 5 mps 762 mmHg 90%
    08:00 +23°C° 0.1 mm 5 mps 763 mmHg 85%
    09:00 +24°C° 0.1 mm 6 mps 763 mmHg 81%
    10:00 +26°C° 0.1 mm 6 mps 763 mmHg 76%
    11:00 +27°C° 0.1 mm 6 mps 762 mmHg 73%
    12:00 +27°C° 0.1 mm 7 mps 762 mmHg 70%
    13:00 +28°C° 0.1 mm 7 mps 761 mmHg 67%
    14:00 +27°C° 0.1 mm 7 mps 761 mmHg 71%
    15:00 +26°C° 0.1 mm 7 mps 761 mmHg 75%
    16:00 +24°C° 0.1 mm 6 mps 760 mmHg 78%
    17:00 +24°C° 0.1 mm 6 mps 761 mmHg 81%
    18:00 +23°C° 0.1 mm 6 mps 761 mmHg 84%
    19:00 +23°C° 0.1 mm 6 mps 762 mmHg 87%
    20:00 +22°C° 0.2 mm 6 mps 762 mmHg 88%
    21:00 +22°C° 0.2 mm 6 mps 763 mmHg 89%
    22:00 +22°C° 0.2 mm 6 mps 763 mmHg 91%
    23:00 +22°C° 0.2 mm 6 mps 763 mmHg 91%

    Day after tomorrow, 21 February, Friday

    Time Temperature Precipitation Wind Pressure Humidity
    00:00 +22°C° 0.2 mm 6 mps 763 mmHg 90%
    01:00 +22°C° 0.2 mm 6 mps 762 mmHg 90%
    02:00 +22°C° 0.2 mm 6 mps 762 mmHg 90%
    03:00 +22°C° 0.2 mm 6 mps 762 mmHg 90%
    04:00 +22°C° 0.2 mm 6 mps 761 mmHg 90%
    05:00 +22°C° 0.1 mm 6 mps 762 mmHg 90%
    06:00 +22°C° 0.1 mm 6 mps 763 mmHg 90%
    07:00 +22°C° 0.1 mm 6 mps 763 mmHg 89%
    08:00 +23°C° 0.1 mm 6 mps 764 mmHg 85%
    09:00 +24°C° 0.1 mm 7 mps 764 mmHg 80%
    10:00 +26°C° 0.1 mm 8 mps 764 mmHg 75%
    11:00 +26°C° 0.1 mm 8 mps 764 mmHg 74%
    12:00 +26°C° 0.1 mm 7 mps 763 mmHg 72%
    13:00 +27°C° 0.1 mm 7 mps 763 mmHg 71%
    20:00 +22°C° 0.2 mm 7 mps 763 mmHg 90%
    21:00 +22°C° 0.2 mm 6 mps 764 mmHg 91%
    22:00 +22°C° 0.2 mm 6 mps 764 mmHg 92%
    23:00 +22°C° 0.3 mm 6 mps 764 mmHg 92%

    22 February, Saturday

    Time Temperature Precipitation Wind Pressure Humidity
    00:00 +22°C° 0.3 mm 6 mps 763 mmHg 92%
    01:00 +22°C° 0.3 mm 6 mps 763 mmHg 92%
    02:00 +22°C° 0.4 mm 6 mps 763 mmHg 92%
    03:00 +22°C° 0.4 mm 7 mps 762 mmHg 92%
    04:00 +22°C° 0.4 mm 7 mps 762 mmHg 92%
    05:00 +22°C° 0.3 mm 7 mps 763 mmHg 91%
    06:00 +23°C° 0.3 mm 7 mps 763 mmHg 91%
    07:00 +23°C° 0.3 mm 8 mps 764 mmHg 90%
    08:00 +24°C° 0.2 mm 8 mps 764 mmHg 86%
    09:00 +24°C° 0.2 mm 8 mps 765 mmHg 83%
    10:00 +26°C° 0.2 mm 9 mps 765 mmHg 79%
    11:00 +26°C° 0.3 mm 9 mps 764 mmHg 77%
    12:00 +26°C° 0.3 mm 9 mps 763 mmHg 75%
    13:00 +26°C° 0.3 mm 9 mps 763 mmHg 72%
    14:00 +26°C° 0.2 mm 9 mps 762 mmHg 73%
    15:00 +26°C° 0.2 mm 9 mps 762 mmHg 74%
    16:00 +26°C° 0.2 mm 8 mps 762 mmHg 75%
    17:00 +24°C° 0.1 mm 8 mps 762 mmHg 79%
    18:00 +23°C° 0.1 mm 7 mps 763 mmHg 84%
    19:00 +22°C° 0.1 mm 6 mps 763 mmHg 89%
    20:00 +22°C° 0.2 mm 6 mps 763 mmHg 90%
    21:00 +22°C° 0.2 mm 6 mps 763 mmHg 91%
    22:00 +22°C° 0.2 mm 6 mps 764 mmHg 92%
    23:00 +22°C° 0.4 mm 6 mps 763 mmHg 92%

    23 February, Sunday

    Time Temperature Precipitation Wind Pressure Humidity
    00:00 +21°C° 0.4 mm 6 mps 763 mmHg 92%
    01:00 +21°C° 0.4 mm 6 mps 763 mmHg 93%
    02:00 +21°C° 0.5 mm 6 mps 762 mmHg 93%
    03:00 +22°C° 0.5 mm 6 mps 762 mmHg 93%
    04:00 +22°C° 0.5 mm 6 mps 762 mmHg 93%
    05:00 +22°C° 0.5 mm 6 mps 762 mmHg 93%
    06:00 +22°C° 0.5 mm 6 mps 763 mmHg 92%
    07:00 +22°C° 0.5 mm 6 mps 763 mmHg 92%
    08:00 +23°C° 0.5 mm 7 mps 763 mmHg 89%
    09:00 +24°C° 0.5 mm 7 mps 764 mmHg 86%
    10:00 +24°C° 0.5 mm 8 mps 764 mmHg 83%
    11:00 +26°C° 0.3 mm 8 mps 763 mmHg 80%
    12:00 +26°C° 0.3 mm 8 mps 762 mmHg 78%
    13:00 +27°C° 0.3 mm 8 mps 761 mmHg 75%
    14:00 +26°C° 0.1 mm 8 mps 761 mmHg 75%
    15:00 +26°C° 0.1 mm 8 mps 760 mmHg 76%
    16:00 +26°C° 0.1 mm 7 mps 760 mmHg 76%
    17:00 +24°C° 0 mm 7 mps 760 mmHg 80%
    18:00 +23°C° 0 mm 7 mps 761 mmHg 84%
    19:00 +22°C° 0 mm 6 mps 761 mmHg 88%
    20:00 +22°C° 0 mm 6 mps 761 mmHg 89%
    21:00 +21°C° 0 mm 6 mps 762 mmHg 90%
    22:00 +21°C° 0 mm 6 mps 762 mmHg 91%
    23:00 +21°C° 0.1 mm 6 mps 762 mmHg 92%

    24 February, Monday

    Time Temperature Precipitation Wind Pressure Humidity
    00:00 +21°C° 0.1 mm 6 mps 761 mmHg 92%
    01:00 +21°C° 0.1 mm 5 mps 761 mmHg 93%
    02:00 +21°C° 0 mm 5 mps 760 mmHg 93%
    03:00 +20°C° 0 mm 5 mps 760 mmHg 93%
    04:00 +20°C° 0 mm 4 mps 760 mmHg 94%
    05:00 +20°C° 0 mm 4 mps 760 mmHg 93%
    06:00 +21°C° 0 mm 4 mps 761 mmHg 92%
    07:00 +21°C° 0 mm 4 mps 761 mmHg 91%
    08:00 +22°C° 0 mm 4 mps 761 mmHg 84%
    09:00 +25°C° 0 mm 4 mps 761 mmHg 78%
    10:00 +27°C° 0 mm 5 mps 761 mmHg 72%
    11:00 +27°C° 0 mm 5 mps 760 mmHg 72%
    12:00 +27°C° 0 mm 5 mps 759 mmHg 72%
    13:00 +27°C° 0 mm 5 mps 758 mmHg 73%
    14:00 +27°C° 0 mm 5 mps 758 mmHg 74%
    15:00 +27°C° 0 mm 5 mps 758 mmHg 75%
    16:00 +27°C° 0 mm 5 mps 758 mmHg 76%
    17:00 +26°C° 0 mm 4 mps 758 mmHg 81%
    18:00 +25°C° 0 mm 4 mps 759 mmHg 86%
    19:00 +22°C° 0 mm 4 mps 759 mmHg 92%
    20:00 +22°C° 0.1 mm 4 mps 759 mmHg 92%
    21:00 +22°C° 0.1 mm 3 mps 759 mmHg 92%
    22:00 +22°C° 0.1 mm 3 mps 760 mmHg 92%
    23:00 +22°C° 0.1 mm 3 mps 759 mmHg 93%
    Show more